Location: El Gallo
(32.4380°N, 116.9347°W)
Time: 19:16:26
(UTC+00:00)

Cosmos 1975 - Pass Details

Date: 01 October 2022
Orbit: 535 x 554 km, 82.5° (Epoch: 01 December)

Event Time Altitude Azimuth Distance (km) Brightness Sun altitude
Rises 13:16:52 0° 346° (NNW) 2,706 6.2 -6.1°
Reaches altitude 10° 13:19:05 10° 340° (NNW) 1,806 5.3 -5.6°
Maximum altitude 13:22:53 45° 267° (W) 743 3.1 -4.8°
Drops below altitude 10° 13:26:37 10° 194° (SSW) 1,785 5.3 -4.0°
Sets 13:28:49 0° 188° (S) 2,670 6.3 -3.6°
